Terug naar catalogus

STARLINK-37479

ActiefCommunicatieSSO
NORAD 68861·PAYLOAD·🇺🇸 United States

Gelanceerd Apr 26, 2026 vanaf Vandenberg Space Force Base

Loading…

Volgende Passages (komende 24 uur)

TLE

VersSource: CelesTrak SupGP

Epoch: Sep 14, 2026, 22:40 UTC

1 68861C 26094Y   26257.94493056  .00047155  00000+0  14639-2 0  2575
2 68861  97.2838 271.2270 0001639  88.3762 194.4949 15.33413529    19

Volg STARLINK-37479 in realtime met AllMySat

Download on the App Store